Skip Page Navigation
NASA JPL Caltech
NASA Logo - Jet Propulsion Laboratory + View the NASA Portal
+ Near-Earth Object (NEO) Program
Search JPL
JPL Home Earth Solar System Stars & Galaxies Technology
JPL Solar System Dynamics
BODIES ORBITS EPHEMERIDES TOOLS PHYSICAL DATA DISCOVERY FAQ SITE MAP
JPL Small-Body Database Browser
Search: [ help ]  
10812 Grotlingbo (1993 FZ25)
Classification: Main-belt Asteroid          SPK-ID: 2010812
Ephemeris | Orbit Diagram | Orbital Elements | Physical Parameters | Discovery Circumstances ]

[ show orbit diagram ]
Orbital Elements at Epoch 2456400.5 (2013-Apr-18.0) TDB
Reference: MPO256945 (heliocentric ecliptic J2000)
 Element Value Uncertainty (1-sigma)   Units 
e 0.1130431 n/a  
a 3.0340397 n/a AU
q 2.6910624 n/a AU
i 1.85825 n/a deg
node 252.81543 n/a deg
peri 187.44785 n/a deg
M 22.90399 n/a deg
tp 2456277.6885254
(2012-Dec-16.18852540)
n/a JED
period 1930.3244044
5.28
n/a
n/a
d
yr
n 0.18649715 n/a deg/d
Q 3.3770170 n/a AU
  Orbit Determination Parameters
   # obs. used (total)      844  
   first obs. used      1993-??-??  
   last obs. used      2013-03-24  
   # oppositions      14  
   planetary ephem.      DE403  
   condition code      0  
   fit RMS      0.55  
   data source      MPC:mpn  
   producer      MPCLINUX  

Additional Information
 T_jup = 3.232 

Ephemeris | Orbit Diagram | Orbital Elements | Physical Parameters | Discovery Circumstances ]

Physical Parameter Table
Parameter Symbol Value Units Sigma Reference Notes
absolute magnitude H 13.3 mag n/a PDS3 (MPC 34773)  

10812 Grötlingbo           Discovered 1993 Mar. 21 at the European Southern Observatory in the course of the Uppsala-ESO Survey of Asteroids and Comets.
In the small parish of Grötlingbo on southern Gotland there is a well-preserved farm, Kattlunds, from the Middle Ages. Its first known owner from 1412 was Botulf Kattlund.
NOTE: some special characters may not display properly (any characters within {} are an attempt to place the proper accent above a character)
Reference: 20060219/MPCPages.arcLast Updated: 2010-06-03
Ephemeris | Orbit Diagram | Orbital Elements | Physical Parameters | Discovery Circumstances ]
ABOUT SSD CREDITS/AWARDS PRIVACY/COPYRIGHT GLOSSARY LINKS
FirstGov 2013-May-24 23:13 UT
(server date/time)  
NASA Home Page
Site Manager:   Donald K. Yeomans
Webmaster  Alan B. Chamberlin